Location: Unspecified
(0.0000°N, 0.0000°E)
Time: 22:38:54
(UTC+00:00)

Envisat - Pass Details

Date: 13 February 2018
Orbit: 764 x 766 km, 98.2° (Epoch: 22 February)

Event Time Altitude Azimuth Distance (km) Brightness Sun altitude
Rises 20:16:04 0° 178° (S) 3,231 6.4 -29.6°
Reaches altitude 10° 20:18:26 10° 183° (S) 2,303 5.6 -30.2°
Maximum altitude 20:23:20 50° 258° (WSW) 968 3.7 -31.3°
Enters shadow 20:24:33 41° 300° (WNW) 1,099 4.0 -31.6°
Exits shadow 20:30:02 - 337° (NNW) 3,001 6.1 -33.0°
Sets 20:30:34 0° 338° (NNW) 3,215 6.3 -33.1°
